Time,TemperatureF,DewpointF,PressureIn,WindDirection,WindDirectionDegrees,WindSpeedMPH,WindSpeedGustMPH,Humidity,HourlyPrecipIn,Conditions,Clouds,dailyrainin,SoftwareType,DateUTC
2013-05-10 00:02:00,58.1,50.5,30.10,SSE,154,0.0,5.0,76,0.00,,,0.00,meteohub,2013-05-10 07:02:00,
2013-05-10 00:07:00,57.7,50.2,30.10,SSE,154,0.0,5.0,76,0.00,,,0.00,meteohub,2013-05-10 07:07:00,
2013-05-10 00:12:00,57.7,50.5,30.10,SSE,154,0.0,5.0,77,0.00,,,0.00,meteohub,2013-05-10 07:12:00,
2013-05-10 00:18:00,57.6,50.7,30.10,SSE,156,1.0,8.0,78,0.00,,,0.00,meteohub,2013-05-10 07:18:00,
2013-05-10 00:23:00,57.4,50.5,30.10,SSE,156,2.0,8.0,78,0.00,,,0.00,meteohub,2013-05-10 07:23:00,
2013-05-10 00:28:00,57.2,50.4,30.10,SSE,156,0.0,8.0,78,0.00,,,0.00,meteohub,2013-05-10 07:28:00,
2013-05-10 00:33:00,56.8,50.4,30.11,SSE,156,0.0,8.0,79,0.00,,,0.00,meteohub,2013-05-10 07:33:00,
2013-05-10 00:38:00,56.8,50.4,30.11,SSE,156,0.0,4.0,79,0.00,,,0.00,meteohub,2013-05-10 07:38:00,
2013-05-10 00:43:00,56.7,50.2,30.11,SSE,156,0.0,4.0,79,0.00,,,0.00,meteohub,2013-05-10 07:43:00,
2013-05-10 00:49:00,56.7,50.2,30.11,SSE,156,0.0,4.0,79,0.00,,,0.00,meteohub,2013-05-10 07:49:00,
2013-05-10 00:54:00,56.7,50.2,30.10,SSE,156,0.0,4.0,79,0.00,,,0.00,meteohub,2013-05-10 07:54:00,
2013-05-10 00:59:00,56.7,50.5,30.11,SSE,156,0.0,0.0,80,0.00,,,0.00,meteohub,2013-05-10 07:59:00,
2013-05-10 01:04:00,56.7,50.5,30.11,SSE,156,0.0,0.0,80,0.00,,,0.00,meteohub,2013-05-10 08:04:00,
2013-05-10 01:09:00,57.0,50.5,30.11,SSE,156,0.0,3.0,79,0.00,,,0.00,meteohub,2013-05-10 08:09:00,
2013-05-10 01:14:00,57.2,50.7,30.11,SSE,156,0.0,3.0,79,0.00,,,0.00,meteohub,2013-05-10 08:14:00,
2013-05-10 01:19:00,56.8,50.4,30.11,SSE,156,0.0,3.0,79,0.00,,,0.00,meteohub,2013-05-10 08:19:00,
2013-05-10 01:25:00,56.7,50.5,30.11,SSE,156,0.0,0.0,80,0.00,,,0.00,meteohub,2013-05-10 08:25:00,
2013-05-10 01:30:00,56.7,50.5,30.11,SSE,156,0.0,0.0,80,0.00,,,0.00,meteohub,2013-05-10 08:30:00,
2013-05-10 01:35:00,56.7,50.5,30.10,SSE,156,0.0,0.0,80,0.00,,,0.00,meteohub,2013-05-10 08:35:00,
2013-05-10 01:40:00,56.7,50.5,30.10,SSE,156,0.0,3.0,80,0.00,,,0.00,meteohub,2013-05-10 08:40:00,
2013-05-10 01:45:00,56.7,50.5,30.10,SSE,159,4.0,4.0,80,0.00,,,0.00,meteohub,2013-05-10 08:45:00,
2013-05-10 01:50:00,56.5,50.4,30.09,SSE,165,6.0,6.0,80,0.00,,,0.00,meteohub,2013-05-10 08:50:00,
2013-05-10 01:56:00,56.1,50.4,30.09,SSE,165,2.0,7.0,81,0.00,,,0.00,meteohub,2013-05-10 08:56:00,
2013-05-10 02:01:00,55.9,50.2,30.09,SSE,165,0.0,7.0,81,0.00,,,0.00,meteohub,2013-05-10 09:01:00,
2013-05-10 02:06:00,55.8,50.0,30.09,SSE,165,0.0,7.0,81,0.00,,,0.00,meteohub,2013-05-10 09:06:00,
2013-05-10 02:11:00,55.8,50.4,30.09,SSE,165,0.0,6.0,82,0.00,,,0.00,meteohub,2013-05-10 09:11:00,
2013-05-10 02:16:00,55.9,50.5,30.09,SSE,165,0.0,5.0,82,0.00,,,0.00,meteohub,2013-05-10 09:16:00,
2013-05-10 02:21:00,55.8,50.0,30.09,SSE,165,0.0,0.0,81,0.00,,,0.00,meteohub,2013-05-10 09:21:00,
2013-05-10 02:27:00,55.8,50.0,30.09,SSE,165,0.0,0.0,81,0.00,,,0.00,meteohub,2013-05-10 09:27:00,
2013-05-10 02:32:00,55.6,50.2,30.09,SSE,165,0.0,5.0,82,0.00,,,0.00,meteohub,2013-05-10 09:32:00,
2013-05-10 02:37:00,55.2,49.8,30.09,SSE,165,0.0,5.0,82,0.00,,,0.00,meteohub,2013-05-10 09:37:00,
2013-05-10 02:42:00,55.0,50.0,30.09,SSE,165,0.0,5.0,83,0.00,,,0.00,meteohub,2013-05-10 09:42:00,
2013-05-10 02:47:00,54.9,49.8,30.09,SSE,165,0.0,1.0,83,0.00,,,0.00,meteohub,2013-05-10 09:47:00,
2013-05-10 02:52:00,54.3,49.3,30.09,SSE,165,1.0,0.0,83,0.00,,,0.00,meteohub,2013-05-10 09:52:00,
2013-05-10 02:57:00,54.1,49.5,30.09,SSE,165,0.0,7.0,84,0.00,,,0.00,meteohub,2013-05-10 09:57:00,
2013-05-10 03:02:00,54.0,49.6,30.09,SSE,168,7.0,7.0,85,0.00,,,0.00,meteohub,2013-05-10 10:02:00,
2013-05-10 03:07:00,53.8,49.5,30.09,South,169,2.0,8.0,85,0.00,,,0.00,meteohub,2013-05-10 10:07:00,
2013-05-10 03:12:00,53.8,49.6,30.09,South,169,0.0,8.0,86,0.00,,,0.00,meteohub,2013-05-10 10:12:00,
2013-05-10 03:17:00,53.4,49.3,30.09,South,169,3.0,8.0,86,0.00,,,0.00,meteohub,2013-05-10 10:17:00,
2013-05-10 03:22:00,53.4,49.3,30.09,South,171,0.0,9.0,86,0.00,,,0.00,meteohub,2013-05-10 10:22:00,
2013-05-10 03:27:00,53.2,49.1,30.08,South,171,3.0,9.0,86,0.00,,,0.00,meteohub,2013-05-10 10:27:00,
2013-05-10 03:32:00,53.2,49.1,30.08,South,176,5.0,11.0,86,0.00,,,0.00,meteohub,2013-05-10 10:32:00,
2013-05-10 03:37:00,53.4,49.3,30.08,South,181,9.0,11.0,86,0.00,,,0.00,meteohub,2013-05-10 10:37:00,
2013-05-10 03:42:00,53.2,49.5,30.08,South,184,10.0,11.0,87,0.00,,,0.00,meteohub,2013-05-10 10:42:00,
2013-05-10 03:47:00,53.2,49.5,30.08,South,187,3.0,11.0,87,0.00,,,0.00,meteohub,2013-05-10 10:47:00,
2013-05-10 03:52:00,53.2,49.5,30.08,SSW,193,3.0,11.0,87,0.00,,,0.00,meteohub,2013-05-10 10:52:00,
2013-05-10 03:57:00,53.1,48.9,30.08,SSW,193,0.0,10.0,86,0.00,,,0.00,meteohub,2013-05-10 10:57:00,
2013-05-10 04:02:00,52.9,49.1,30.07,South,190,0.0,9.0,87,0.00,,,0.00,meteohub,2013-05-10 11:02:00,
2013-05-10 04:07:00,52.7,48.9,30.08,South,190,1.0,6.0,87,0.00,,,0.00,meteohub,2013-05-10 11:07:00,
2013-05-10 04:12:00,52.5,48.7,30.07,South,190,2.0,6.0,87,0.00,,,0.00,meteohub,2013-05-10 11:12:00,
2013-05-10 04:17:00,52.3,48.6,30.08,South,190,0.0,6.0,87,0.00,,,0.00,meteohub,2013-05-10 11:17:00,
2013-05-10 04:22:00,52.2,48.7,30.07,South,190,0.0,4.0,88,0.00,,,0.00,meteohub,2013-05-10 11:22:00,
2013-05-10 04:27:00,52.2,48.7,30.08,South,190,0.0,4.0,88,0.00,,,0.00,meteohub,2013-05-10 11:27:00,
2013-05-10 04:33:00,52.0,48.6,30.07,South,190,0.0,0.0,88,0.00,,,0.00,meteohub,2013-05-10 11:33:00,
2013-05-10 04:38:00,51.6,48.2,30.07,South,190,0.0,2.0,88,0.00,,,0.00,meteohub,2013-05-10 11:38:00,
2013-05-10 04:43:00,51.6,48.2,30.07,South,189,0.0,2.0,88,0.00,,,0.00,meteohub,2013-05-10 11:43:00,
2013-05-10 04:48:00,51.6,48.2,30.07,South,189,0.0,2.0,88,0.00,,,0.00,meteohub,2013-05-10 11:48:00,
2013-05-10 04:53:00,51.6,48.2,30.08,South,189,0.0,2.0,88,0.00,,,0.00,meteohub,2013-05-10 11:53:00,
2013-05-10 04:58:00,51.4,48.4,30.07,South,189,0.0,0.0,89,0.00,,,0.00,meteohub,2013-05-10 11:58:00,
2013-05-10 05:04:00,51.4,48.4,30.07,South,189,0.0,0.0,89,0.00,,,0.00,meteohub,2013-05-10 12:04:00,
2013-05-10 05:09:00,51.6,48.6,30.07,South,189,0.0,1.0,89,0.00,,,0.00,meteohub,2013-05-10 12:09:00,
2013-05-10 05:14:00,51.6,48.6,30.08,South,189,0.0,1.0,89,0.00,,,0.00,meteohub,2013-05-10 12:14:00,
2013-05-10 05:19:00,51.6,48.6,30.08,South,189,0.0,1.0,89,0.00,,,0.00,meteohub,2013-05-10 12:19:00,
2013-05-10 05:24:00,51.6,48.6,30.08,South,189,0.0,0.0,89,0.00,,,0.00,meteohub,2013-05-10 12:24:00,
2013-05-10 05:29:00,51.6,48.6,30.07,South,189,0.0,0.0,89,0.00,,,0.00,meteohub,2013-05-10 12:29:00,
2013-05-10 05:35:00,51.6,48.6,30.07,South,189,0.0,4.0,89,0.00,,,0.00,meteohub,2013-05-10 12:35:00,
2013-05-10 05:40:00,51.8,48.7,30.08,South,189,2.0,4.0,89,0.00,,,0.00,meteohub,2013-05-10 12:40:00,
2013-05-10 05:45:00,51.8,49.6,30.08,South,189,0.0,5.0,92,0.00,,,0.00,meteohub,2013-05-10 12:45:00,
2013-05-10 05:50:00,52.0,48.9,30.08,South,189,0.0,5.0,89,0.00,,,0.00,meteohub,2013-05-10 12:50:00,
2013-05-10 05:55:00,51.6,48.6,30.07,South,188,0.0,5.0,89,0.00,,,0.00,meteohub,2013-05-10 12:55:00,
2013-05-10 06:01:00,51.8,48.7,30.07,SE,131,0.0,5.0,89,0.00,,,0.00,meteohub,2013-05-10 13:01:00,
2013-05-10 06:06:00,52.0,48.9,30.08,ESE,123,0.0,4.0,89,0.00,,,0.00,meteohub,2013-05-10 13:06:00,
2013-05-10 06:11:00,52.2,49.1,30.08,ESE,123,0.0,5.0,89,0.00,,,0.00,meteohub,2013-05-10 13:11:00,
2013-05-10 06:16:00,52.2,49.1,30.07,ESE,106,7.0,7.0,89,0.00,,,0.00,meteohub,2013-05-10 13:16:00,
2013-05-10 06:21:00,52.2,48.7,30.08,ESE,114,4.0,7.0,88,0.00,,,0.00,meteohub,2013-05-10 13:21:00,
2013-05-10 06:27:00,52.2,48.7,30.08,South,173,6.0,9.0,88,0.00,,,0.00,meteohub,2013-05-10 13:27:00,
2013-05-10 06:32:00,52.0,48.6,30.09,South,173,0.0,9.0,88,0.00,,,0.00,meteohub,2013-05-10 13:32:00,
2013-05-10 06:37:00,52.2,49.1,30.08,SE,140,0.0,9.0,89,0.00,,,0.00,meteohub,2013-05-10 13:37:00,
2013-05-10 06:42:00,52.2,48.7,30.09,South,173,0.0,7.0,88,0.00,,,0.00,meteohub,2013-05-10 13:42:00,
2013-05-10 06:47:00,52.2,48.7,30.09,South,177,0.0,7.0,88,0.00,,,0.00,meteohub,2013-05-10 13:47:00,
2013-05-10 06:52:00,52.0,48.9,30.09,South,177,0.0,7.0,89,0.00,,,0.00,meteohub,2013-05-10 13:52:00,
2013-05-10 06:57:00,52.2,49.1,30.09,South,177,0.0,6.0,89,0.00,,,0.00,meteohub,2013-05-10 13:57:00,
2013-05-10 07:03:00,52.3,49.3,30.10,South,177,0.0,4.0,89,0.00,,,0.00,meteohub,2013-05-10 14:03:00,
2013-05-10 07:08:00,52.5,49.1,30.10,SSW,194,0.0,0.0,88,0.00,,,0.00,meteohub,2013-05-10 14:08:00,
2013-05-10 07:13:00,52.9,49.5,30.11,SE,133,0.0,2.0,88,0.00,,,0.00,meteohub,2013-05-10 14:13:00,
2013-05-10 07:18:00,53.1,49.3,30.12,South,182,4.0,4.0,87,0.00,,,0.00,meteohub,2013-05-10 14:18:00,
2013-05-10 07:23:00,53.1,49.3,30.11,South,181,0.0,9.0,87,0.00,,,0.00,meteohub,2013-05-10 14:23:00,
2013-05-10 07:28:00,53.1,49.3,30.12,South,179,2.0,9.0,87,0.00,,,0.00,meteohub,2013-05-10 14:28:00,
2013-05-10 07:34:00,53.4,49.6,30.12,South,179,0.0,9.0,87,0.00,,,0.00,meteohub,2013-05-10 14:34:00,
2013-05-10 07:39:00,53.8,50.0,30.12,South,179,0.0,7.0,87,0.00,,,0.00,meteohub,2013-05-10 14:39:00,
2013-05-10 07:44:00,54.1,49.8,30.11,South,179,0.0,5.0,85,0.00,,,0.00,meteohub,2013-05-10 14:44:00,
2013-05-10 07:49:00,54.7,50.2,30.11,South,179,0.0,6.0,85,0.00,,,0.00,meteohub,2013-05-10 14:49:00,
2013-05-10 07:54:00,54.9,50.4,30.11,South,179,0.0,6.0,85,0.00,,,0.00,meteohub,2013-05-10 14:54:00,
2013-05-10 07:59:00,55.2,50.5,30.11,South,179,0.0,6.0,84,0.00,,,0.00,meteohub,2013-05-10 14:59:00,
2013-05-10 08:04:00,55.4,50.4,30.11,South,181,3.0,5.0,83,0.00,,,0.00,meteohub,2013-05-10 15:04:00,
2013-05-10 08:10:00,55.8,50.7,30.11,South,181,0.0,9.0,83,0.00,,,0.00,meteohub,2013-05-10 15:10:00,
2013-05-10 08:15:00,55.9,50.5,30.12,South,181,0.0,10.0,82,0.00,,,0.00,meteohub,2013-05-10 15:15:00,
2013-05-10 08:20:00,56.1,50.4,30.12,South,181,0.0,10.0,81,0.00,,,0.00,meteohub,2013-05-10 15:20:00,
2013-05-10 08:25:00,56.5,51.1,30.12,South,181,0.0,10.0,82,0.00,,,0.00,meteohub,2013-05-10 15:25:00,
2013-05-10 08:30:00,57.0,50.9,30.13,South,181,0.0,4.0,80,0.00,,,0.00,meteohub,2013-05-10 15:30:00,
2013-05-10 08:35:00,57.6,51.1,30.13,South,181,0.0,3.0,79,0.00,,,0.00,meteohub,2013-05-10 15:35:00,
2013-05-10 08:40:00,58.5,52.0,30.13,South,181,0.0,0.0,79,0.00,,,0.00,meteohub,2013-05-10 15:40:00,
2013-05-10 08:46:00,59.5,52.0,30.13,South,181,0.0,1.0,76,0.00,,,0.00,meteohub,2013-05-10 15:46:00,
2013-05-10 08:51:00,59.7,51.8,30.13,South,181,0.0,1.0,75,0.00,,,0.00,meteohub,2013-05-10 15:51:00,
2013-05-10 08:56:00,60.1,51.8,30.14,South,181,3.0,3.0,74,0.00,,,0.00,meteohub,2013-05-10 15:56:00,
2013-05-10 09:01:00,60.1,51.8,30.14,South,181,0.0,6.0,74,0.00,,,0.00,meteohub,2013-05-10 16:01:00,
2013-05-10 09:06:00,60.1,51.8,30.14,South,181,0.0,6.0,74,0.00,,,0.00,meteohub,2013-05-10 16:06:00,
2013-05-10 09:11:00,60.4,52.2,30.13,South,181,0.0,6.0,74,0.00,,,0.00,meteohub,2013-05-10 16:11:00,
2013-05-10 09:17:00,61.3,52.7,30.13,South,181,3.0,4.0,73,0.00,,,0.00,meteohub,2013-05-10 16:17:00,
2013-05-10 09:22:00,61.9,52.3,30.13,South,181,0.0,5.0,71,0.00,,,0.00,meteohub,2013-05-10 16:22:00,
2013-05-10 09:27:00,62.4,52.5,30.12,South,176,0.0,6.0,70,0.00,,,0.00,meteohub,2013-05-10 16:27:00,
2013-05-10 09:32:00,62.4,52.5,30.12,South,177,0.0,6.0,70,0.00,,,0.00,meteohub,2013-05-10 16:32:00,
2013-05-10 09:37:00,62.8,52.5,30.12,South,179,0.0,7.0,69,0.00,,,0.00,meteohub,2013-05-10 16:37:00,
2013-05-10 09:42:00,63.1,52.9,30.12,South,179,4.0,7.0,69,0.00,,,0.00,meteohub,2013-05-10 16:42:00,
2013-05-10 09:47:00,63.5,53.1,30.12,South,179,0.0,7.0,69,0.00,,,0.00,meteohub,2013-05-10 16:47:00,
2013-05-10 09:52:00,63.9,53.1,30.12,South,179,3.0,6.0,68,0.00,,,0.00,meteohub,2013-05-10 16:52:00,
2013-05-10 09:57:00,64.8,53.6,30.12,South,189,7.0,7.0,67,0.00,,,0.00,meteohub,2013-05-10 16:57:00,
2013-05-10 10:02:00,64.9,53.8,30.12,South,189,2.0,8.0,67,0.00,,,0.00,meteohub,2013-05-10 17:02:00,
2013-05-10 10:07:00,65.1,53.4,30.12,SSW,195,3.0,8.0,66,0.00,,,0.00,meteohub,2013-05-10 17:07:00,
2013-05-10 10:12:00,65.7,53.6,30.12,South,182,0.0,8.0,65,0.00,,,0.00,meteohub,2013-05-10 17:12:00,
2013-05-10 10:17:00,66.0,54.0,30.12,South,185,2.0,6.0,65,0.00,,,0.00,meteohub,2013-05-10 17:17:00,
2013-05-10 10:22:00,66.9,54.9,30.12,South,185,0.0,6.0,65,0.00,,,0.00,meteohub,2013-05-10 17:22:00,
2013-05-10 10:27:00,67.6,54.1,30.12,South,185,2.0,6.0,62,0.00,,,0.00,meteohub,2013-05-10 17:27:00,
2013-05-10 10:32:00,68.2,55.0,30.12,South,185,0.0,6.0,63,0.00,,,0.00,meteohub,2013-05-10 17:32:00,
2013-05-10 10:37:00,68.5,55.0,30.12,South,185,0.0,6.0,62,0.00,,,0.00,meteohub,2013-05-10 17:37:00,
2013-05-10 10:42:00,69.3,54.9,30.12,South,176,0.0,4.0,60,0.00,,,0.00,meteohub,2013-05-10 17:42:00,
2013-05-10 10:47:00,69.6,55.0,30.12,South,176,0.0,0.0,60,0.00,,,0.00,meteohub,2013-05-10 17:47:00,
2013-05-10 10:52:00,70.2,55.2,30.12,South,181,0.0,1.0,59,0.00,,,0.00,meteohub,2013-05-10 17:52:00,
2013-05-10 10:57:00,70.2,54.7,30.12,SSW,202,0.0,9.0,58,0.00,,,0.00,meteohub,2013-05-10 17:57:00,
2013-05-10 11:02:00,70.9,55.4,30.12,SSE,153,0.0,9.0,58,0.00,,,0.00,meteohub,2013-05-10 18:02:00,
2013-05-10 11:07:00,71.2,55.8,30.12,SSW,202,0.0,9.0,58,0.00,,,0.00,meteohub,2013-05-10 18:07:00,
2013-05-10 11:12:00,71.8,55.8,30.11,WSW,243,5.0,5.0,57,0.00,,,0.00,meteohub,2013-05-10 18:12:00,
2013-05-10 11:17:00,72.3,55.8,30.11,WSW,242,3.0,5.0,56,0.00,,,0.00,meteohub,2013-05-10 18:17:00,
2013-05-10 11:22:00,72.0,55.4,30.11,WSW,247,0.0,7.0,56,0.00,,,0.00,meteohub,2013-05-10 18:22:00,
2013-05-10 11:27:00,72.1,55.6,30.11,WSW,247,4.0,7.0,56,0.00,,,0.00,meteohub,2013-05-10 18:27:00,
2013-05-10 11:32:00,72.3,56.3,30.11,WSW,255,3.0,7.0,57,0.00,,,0.00,meteohub,2013-05-10 18:32:00,
2013-05-10 11:37:00,72.7,56.5,30.11,WSW,256,1.0,4.0,57,0.00,,,0.00,meteohub,2013-05-10 18:37:00,
2013-05-10 11:42:00,72.9,55.8,30.11,WSW,256,4.0,5.0,55,0.00,,,0.00,meteohub,2013-05-10 18:42:00,
2013-05-10 11:47:00,72.9,55.8,30.11,WSW,243,0.0,7.0,55,0.00,,,0.00,meteohub,2013-05-10 18:47:00,
2013-05-10 11:52:00,73.6,55.9,30.11,SW,234,5.0,7.0,54,0.00,,,0.00,meteohub,2013-05-10 18:52:00,
2013-05-10 11:57:00,73.9,56.3,30.11,West,265,6.0,7.0,54,0.00,,,0.00,meteohub,2013-05-10 18:57:00,
2013-05-10 12:02:00,74.5,56.7,30.11,West,267,2.0,7.0,54,0.00,,,0.00,meteohub,2013-05-10 19:02:00,
2013-05-10 12:07:00,74.1,56.5,30.11,WNW,294,1.0,7.0,54,0.00,,,0.00,meteohub,2013-05-10 19:07:00,
2013-05-10 12:12:00,73.9,56.3,30.11,WNW,283,2.0,12.0,54,0.00,,,0.00,meteohub,2013-05-10 19:12:00,
2013-05-10 12:17:00,73.9,56.3,30.10,WNW,283,0.0,12.0,54,0.00,,,0.00,meteohub,2013-05-10 19:17:00,
2013-05-10 12:22:00,74.1,56.5,30.11,WNW,285,1.0,12.0,54,0.00,,,0.00,meteohub,2013-05-10 19:22:00,
2013-05-10 12:28:00,74.7,56.8,30.10,WNW,284,0.0,12.0,54,0.00,,,0.00,meteohub,2013-05-10 19:28:00,
2013-05-10 12:33:00,75.4,57.6,30.10,WNW,284,3.0,12.0,54,0.00,,,0.00,meteohub,2013-05-10 19:33:00,
2013-05-10 12:38:00,75.6,56.7,30.10,West,279,1.0,7.0,52,0.00,,,0.00,meteohub,2013-05-10 19:38:00,
2013-05-10 12:43:00,76.5,57.6,30.09,West,270,0.0,10.0,52,0.00,,,0.00,meteohub,2013-05-10 19:43:00,
2013-05-10 12:48:00,76.5,57.0,30.09,West,268,6.0,10.0,51,0.00,,,0.00,meteohub,2013-05-10 19:48:00,
2013-05-10 12:53:00,76.3,56.8,30.09,West,267,0.0,7.0,51,0.00,,,0.00,meteohub,2013-05-10 19:53:00,
2013-05-10 12:58:00,76.8,56.8,30.09,West,269,0.0,9.0,50,0.00,,,0.00,meteohub,2013-05-10 19:58:00,
2013-05-10 13:04:00,76.8,57.9,30.09,West,271,0.0,9.0,52,0.00,,,0.00,meteohub,2013-05-10 20:04:00,
2013-05-10 13:09:00,77.5,57.4,30.09,West,271,1.0,5.0,50,0.00,,,0.00,meteohub,2013-05-10 20:09:00,
2013-05-10 13:14:00,76.8,56.8,30.09,West,275,4.0,10.0,50,0.00,,,0.00,meteohub,2013-05-10 20:14:00,
2013-05-10 13:19:00,76.6,57.2,30.09,West,275,0.0,12.0,51,0.00,,,0.00,meteohub,2013-05-10 20:19:00,
2013-05-10 13:24:00,76.8,56.8,30.09,West,275,1.0,12.0,50,0.00,,,0.00,meteohub,2013-05-10 20:24:00,
2013-05-10 13:29:00,76.8,57.4,30.09,WNW,285,0.0,8.0,51,0.00,,,0.00,meteohub,2013-05-10 20:29:00,
2013-05-10 13:35:00,77.5,57.9,30.08,WNW,289,5.0,7.0,51,0.00,,,0.00,meteohub,2013-05-10 20:35:00,
2013-05-10 13:40:00,78.1,57.9,30.08,WNW,289,4.0,7.0,50,0.00,,,0.00,meteohub,2013-05-10 20:40:00,
2013-05-10 13:45:00,78.3,57.6,30.08,WNW,289,2.0,5.0,49,0.00,,,0.00,meteohub,2013-05-10 20:45:00,
2013-05-10 13:50:00,79.0,57.6,30.08,WNW,286,2.0,5.0,48,0.00,,,0.00,meteohub,2013-05-10 20:50:00,
2013-05-10 13:55:00,78.4,57.7,30.08,West,271,0.0,8.0,49,0.00,,,0.00,meteohub,2013-05-10 20:55:00,
2013-05-10 14:00:00,78.6,58.5,30.08,West,275,0.0,12.0,50,0.00,,,0.00,meteohub,2013-05-10 21:00:00,
2013-05-10 14:06:00,78.8,58.1,30.08,West,276,5.0,12.0,49,0.00,,,0.00,meteohub,2013-05-10 21:06:00,
2013-05-10 14:11:00,79.3,57.9,30.08,West,277,3.0,12.0,48,0.00,,,0.00,meteohub,2013-05-10 21:11:00,
2013-05-10 14:16:00,79.5,58.6,30.08,SW,234,4.0,6.0,49,0.00,,,0.00,meteohub,2013-05-10 21:16:00,
2013-05-10 14:21:00,80.2,58.8,30.08,WSW,241,2.0,9.0,48,0.00,,,0.00,meteohub,2013-05-10 21:21:00,
2013-05-10 14:26:00,81.0,58.3,30.08,SW,235,2.0,9.0,46,0.00,,,0.00,meteohub,2013-05-10 21:26:00,
2013-05-10 14:31:00,80.8,58.6,30.07,SSE,160,0.0,9.0,47,0.00,,,0.00,meteohub,2013-05-10 21:31:00,
2013-05-10 14:36:00,80.8,58.1,30.07,ESE,111,0.0,9.0,46,0.00,,,0.00,meteohub,2013-05-10 21:36:00,
2013-05-10 14:42:00,81.7,58.8,30.07,SSW,194,2.0,6.0,46,0.00,,,0.00,meteohub,2013-05-10 21:42:00,
2013-05-10 14:47:00,82.0,58.6,30.07,SW,218,6.0,7.0,45,0.00,,,0.00,meteohub,2013-05-10 21:47:00,
2013-05-10 14:52:00,82.4,59.0,30.06,SSW,212,0.0,10.0,45,0.00,,,0.00,meteohub,2013-05-10 21:52:00,
2013-05-10 14:57:00,82.8,58.6,30.06,SW,223,7.0,10.0,44,0.00,,,0.00,meteohub,2013-05-10 21:57:00,
2013-05-10 14:58:00,82.9,59.4,30.06,SW,223,3.0,10.0,45,0.00,,,0.00,meteohub,2013-05-10 21:58:00,
2013-05-10 15:00:00,83.1,59.5,30.06,SW,223,1.0,10.0,45,0.00,,,0.00,meteohub,2013-05-10 22:00:00,
2013-05-10 15:01:00,83.3,59.2,30.06,SW,223,1.0,10.0,44,0.00,,,0.00,meteohub,2013-05-10 22:01:00,
2013-05-10 15:02:00,83.5,59.4,30.06,SW,223,0.0,12.0,44,0.00,,,0.00,meteohub,2013-05-10 22:02:00,
2013-05-10 15:07:00,83.7,58.8,30.06,SW,223,0.0,12.0,43,0.00,,,0.00,meteohub,2013-05-10 22:07:00,
2013-05-10 15:12:00,83.7,58.1,30.06,SW,224,0.0,8.0,42,0.00,,,0.00,meteohub,2013-05-10 22:12:00,
2013-05-10 15:17:00,83.5,58.6,30.06,SW,225,0.0,8.0,43,0.00,,,0.00,meteohub,2013-05-10 22:17:00,
2013-05-10 15:22:00,83.7,58.8,30.05,SW,225,1.0,8.0,43,0.00,,,0.00,meteohub,2013-05-10 22:22:00,
2013-05-10 15:27:00,84.0,58.5,30.05,SW,225,0.0,6.0,42,0.00,,,0.00,meteohub,2013-05-10 22:27:00,
2013-05-10 15:32:00,84.4,58.8,30.05,SW,225,0.0,5.0,42,0.00,,,0.00,meteohub,2013-05-10 22:32:00,
2013-05-10 15:37:00,84.6,59.0,30.05,SW,225,0.0,4.0,42,0.00,,,0.00,meteohub,2013-05-10 22:37:00,
2013-05-10 15:42:00,84.7,59.2,30.05,SW,229,0.0,4.0,42,0.00,,,0.00,meteohub,2013-05-10 22:42:00,
2013-05-10 15:47:00,84.4,58.8,30.05,SW,229,0.0,5.0,42,0.00,,,0.00,meteohub,2013-05-10 22:47:00,
2013-05-10 15:52:00,84.6,58.3,30.04,SW,231,3.0,5.0,41,0.00,,,0.00,meteohub,2013-05-10 22:52:00,
2013-05-10 15:57:00,84.9,58.6,30.04,SW,231,0.0,7.0,41,0.00,,,0.00,meteohub,2013-05-10 22:57:00,
2013-05-10 16:02:00,84.7,58.5,30.04,WSW,238,2.0,7.0,41,0.00,,,0.00,meteohub,2013-05-10 23:02:00,
2013-05-10 16:07:00,84.4,58.1,30.04,WSW,239,1.0,7.0,41,0.00,,,0.00,meteohub,2013-05-10 23:07:00,
2013-05-10 16:12:00,84.2,57.9,30.04,WSW,239,2.0,7.0,41,0.00,,,0.00,meteohub,2013-05-10 23:12:00,
2013-05-10 16:17:00,84.7,57.7,30.04,WSW,239,0.0,6.0,40,0.00,,,0.00,meteohub,2013-05-10 23:17:00,
2013-05-10 16:22:00,84.9,58.6,30.04,WSW,239,1.0,3.0,41,0.00,,,0.00,meteohub,2013-05-10 23:22:00,
2013-05-10 16:27:00,85.6,57.9,30.03,WSW,239,4.0,5.0,39,0.00,,,0.00,meteohub,2013-05-10 23:27:00,
2013-05-10 16:32:00,85.5,57.0,30.04,WSW,239,2.0,9.0,38,0.00,,,0.00,meteohub,2013-05-10 23:32:00,
2013-05-10 16:37:00,84.7,57.0,30.03,WSW,239,0.0,9.0,39,0.00,,,0.00,meteohub,2013-05-10 23:37:00,
2013-05-10 16:43:00,85.3,57.6,30.03,WSW,237,0.0,9.0,39,0.00,,,0.00,meteohub,2013-05-10 23:43:00,
2013-05-10 16:48:00,85.6,57.9,30.03,WSW,237,3.0,6.0,39,0.00,,,0.00,meteohub,2013-05-10 23:48:00,
2013-05-10 16:53:00,85.8,57.2,30.03,SW,236,2.0,6.0,38,0.00,,,0.00,meteohub,2013-05-10 23:53:00,
2013-05-10 16:58:00,85.8,57.9,30.03,SW,235,4.0,5.0,39,0.00,,,0.00,meteohub,2013-05-10 23:58:00,
2013-05-10 17:03:00,85.8,57.2,30.03,SW,235,1.0,5.0,38,0.00,,,0.00,meteohub,2013-05-11 00:03:00,
2013-05-10 17:09:00,85.8,57.2,30.03,SW,235,0.0,5.0,38,0.00,,,0.00,meteohub,2013-05-11 00:09:00,
2013-05-10 17:14:00,86.2,57.6,30.02,SW,234,0.0,5.0,38,0.00,,,0.00,meteohub,2013-05-11 00:14:00,
2013-05-10 17:19:00,85.8,57.2,30.02,SW,234,0.0,4.0,38,0.00,,,0.00,meteohub,2013-05-11 00:19:00,
2013-05-10 17:24:00,86.4,57.7,30.02,SW,234,1.0,4.0,38,0.00,,,0.00,meteohub,2013-05-11 00:24:00,
2013-05-10 17:29:00,86.7,58.1,30.02,SW,234,0.0,4.0,38,0.00,,,0.00,meteohub,2013-05-11 00:29:00,
2013-05-10 17:34:00,87.3,58.6,30.02,SW,234,2.0,3.0,38,0.00,,,0.00,meteohub,2013-05-11 00:34:00,
2013-05-10 17:39:00,86.5,57.9,30.02,SW,235,0.0,4.0,38,0.00,,,0.00,meteohub,2013-05-11 00:39:00,
2013-05-10 17:45:00,86.5,58.6,30.02,SW,235,0.0,6.0,39,0.00,,,0.00,meteohub,2013-05-11 00:45:00,
2013-05-10 17:50:00,86.5,58.6,30.02,SW,235,0.0,6.0,39,0.00,,,0.00,meteohub,2013-05-11 00:50:00,
2013-05-10 17:55:00,86.7,58.1,30.02,SW,234,1.0,6.0,38,0.00,,,0.00,meteohub,2013-05-11 00:55:00,
2013-05-10 18:00:00,86.4,57.7,30.02,SW,235,1.0,4.0,38,0.00,,,0.00,meteohub,2013-05-11 01:00:00,
2013-05-10 18:05:00,86.2,58.3,30.02,SW,231,5.0,5.0,39,0.00,,,0.00,meteohub,2013-05-11 01:05:00,
2013-05-10 18:10:00,86.4,57.7,30.02,SW,231,0.0,5.0,38,0.00,,,0.00,meteohub,2013-05-11 01:10:00,
2013-05-10 18:16:00,86.0,58.1,30.02,SW,232,4.0,7.0,39,0.00,,,0.00,meteohub,2013-05-11 01:16:00,
2013-05-10 18:21:00,85.6,57.2,30.02,WSW,239,4.0,7.0,38,0.00,,,0.00,meteohub,2013-05-11 01:21:00,
2013-05-10 18:26:00,85.5,57.7,30.01,WSW,239,1.0,6.0,39,0.00,,,0.00,meteohub,2013-05-11 01:26:00,
2013-05-10 18:31:00,85.5,57.7,30.01,WSW,239,1.0,6.0,39,0.00,,,0.00,meteohub,2013-05-11 01:31:00,
2013-05-10 18:36:00,85.1,57.4,30.02,WSW,239,1.0,5.0,39,0.00,,,0.00,meteohub,2013-05-11 01:36:00,
2013-05-10 18:41:00,84.7,57.0,30.01,WSW,237,1.0,5.0,39,0.00,,,0.00,meteohub,2013-05-11 01:41:00,
2013-05-10 18:47:00,84.7,57.0,30.01,WSW,237,1.0,4.0,39,0.00,,,0.00,meteohub,2013-05-11 01:47:00,
2013-05-10 18:52:00,84.7,57.0,30.01,WSW,237,1.0,4.0,39,0.00,,,0.00,meteohub,2013-05-11 01:52:00,
2013-05-10 18:57:00,84.7,57.0,30.01,WSW,237,1.0,2.0,39,0.00,,,0.00,meteohub,2013-05-11 01:57:00,
2013-05-10 19:02:00,84.7,56.3,30.01,SW,235,4.0,4.0,38,0.00,,,0.00,meteohub,2013-05-11 02:02:00,
2013-05-10 19:07:00,83.8,59.5,30.01,SSW,210,7.0,11.0,44,0.00,,,0.00,meteohub,2013-05-11 02:07:00,
2013-05-10 19:12:00,82.6,59.7,30.01,SSW,194,10.0,14.0,46,0.00,,,0.00,meteohub,2013-05-11 02:12:00,
2013-05-10 19:17:00,81.9,59.0,30.02,SSW,205,2.0,14.0,46,0.00,,,0.00,meteohub,2013-05-11 02:17:00,
2013-05-10 19:22:00,81.7,59.5,30.02,SW,217,6.0,14.0,47,0.00,,,0.00,meteohub,2013-05-11 02:22:00,
2013-05-10 19:27:00,81.1,59.0,30.02,South,179,4.0,14.0,47,0.00,,,0.00,meteohub,2013-05-11 02:27:00,
2013-05-10 19:32:00,81.0,59.4,30.02,SW,217,8.0,14.0,48,0.00,,,0.00,meteohub,2013-05-11 02:32:00,
2013-05-10 19:37:00,80.8,59.2,30.02,SW,217,1.0,10.0,48,0.00,,,0.00,meteohub,2013-05-11 02:37:00,
2013-05-10 19:42:00,80.2,58.8,30.02,SSW,212,4.0,10.0,48,0.00,,,0.00,meteohub,2013-05-11 02:42:00,
2013-05-10 19:47:00,79.9,59.0,30.02,SSW,211,2.0,9.0,49,0.00,,,0.00,meteohub,2013-05-11 02:47:00,
2013-05-10 19:52:00,79.2,59.0,30.03,SSW,202,2.0,9.0,50,0.00,,,0.00,meteohub,2013-05-11 02:52:00,
2013-05-10 19:57:00,78.8,58.6,30.03,SSW,202,1.0,7.0,50,0.00,,,0.00,meteohub,2013-05-11 02:57:00,
2013-05-10 20:02:00,78.3,58.6,30.03,SSW,209,1.0,7.0,51,0.00,,,0.00,meteohub,2013-05-11 03:02:00,
2013-05-10 20:07:00,78.1,58.5,30.03,South,173,3.0,5.0,51,0.00,,,0.00,meteohub,2013-05-11 03:07:00,
2013-05-10 20:12:00,77.5,58.5,30.03,South,174,1.0,5.0,52,0.00,,,0.00,meteohub,2013-05-11 03:12:00,
2013-05-10 20:17:00,77.2,58.3,30.04,South,174,3.0,5.0,52,0.00,,,0.00,meteohub,2013-05-11 03:17:00,
2013-05-10 20:22:00,76.6,58.3,30.04,South,175,3.0,5.0,53,0.00,,,0.00,meteohub,2013-05-11 03:22:00,
2013-05-10 20:27:00,76.3,58.5,30.04,South,175,0.0,7.0,54,0.00,,,0.00,meteohub,2013-05-11 03:27:00,
2013-05-10 20:32:00,75.9,58.1,30.04,South,175,1.0,7.0,54,0.00,,,0.00,meteohub,2013-05-11 03:32:00,
2013-05-10 20:37:00,75.6,58.3,30.04,South,175,0.0,5.0,55,0.00,,,0.00,meteohub,2013-05-11 03:37:00,
2013-05-10 20:42:00,75.0,58.3,30.04,South,175,0.0,5.0,56,0.00,,,0.00,meteohub,2013-05-11 03:42:00,
2013-05-10 20:47:00,74.7,57.9,30.04,South,175,0.0,3.0,56,0.00,,,0.00,meteohub,2013-05-11 03:47:00,
2013-05-10 20:52:00,74.3,57.6,30.04,South,175,0.0,3.0,56,0.00,,,0.00,meteohub,2013-05-11 03:52:00,
2013-05-10 20:57:00,73.8,57.0,30.05,South,175,0.0,2.0,56,0.00,,,0.00,meteohub,2013-05-11 03:57:00,
2013-05-10 21:01:00,73.4,57.2,30.05,South,175,0.0,2.0,57,0.00,,,0.00,meteohub,2013-05-11 04:01:00,
2013-05-10 21:02:00,73.2,57.0,30.05,South,175,0.0,2.0,57,0.00,,,0.00,meteohub,2013-05-11 04:02:00,
2013-05-10 21:03:00,73.2,57.0,30.05,South,175,2.0,2.0,57,0.00,,,0.00,meteohub,2013-05-11 04:03:00,
2013-05-10 21:07:00,72.7,56.5,30.05,South,175,0.0,2.0,57,0.00,,,0.00,meteohub,2013-05-11 04:07:00,
2013-05-10 21:12:00,72.1,56.5,30.05,South,175,0.0,2.0,58,0.00,,,0.00,meteohub,2013-05-11 04:12:00,
2013-05-10 21:17:00,71.8,56.7,30.06,South,175,0.0,2.0,59,0.00,,,0.00,meteohub,2013-05-11 04:17:00,
2013-05-10 21:22:00,71.2,56.7,30.06,South,172,3.0,3.0,60,0.00,,,0.00,meteohub,2013-05-11 04:22:00,
2013-05-10 21:27:00,70.9,56.8,30.06,South,172,0.0,5.0,61,0.00,,,0.00,meteohub,2013-05-11 04:27:00,
2013-05-10 21:32:00,70.5,56.8,30.06,South,172,4.0,5.0,62,0.00,,,0.00,meteohub,2013-05-11 04:32:00,
2013-05-10 21:37:00,70.2,56.5,30.06,South,170,0.0,7.0,62,0.00,,,0.00,meteohub,2013-05-11 04:37:00,
2013-05-10 21:42:00,70.0,56.3,30.06,South,170,2.0,7.0,62,0.00,,,0.00,meteohub,2013-05-11 04:42:00,
2013-05-10 21:47:00,69.6,55.9,30.06,SSE,165,5.0,7.0,62,0.00,,,0.00,meteohub,2013-05-11 04:47:00,
2013-05-10 21:52:00,69.4,55.9,30.06,SSE,165,0.0,6.0,62,0.00,,,0.00,meteohub,2013-05-11 04:52:00,
2013-05-10 21:57:00,69.1,55.6,30.06,SSE,163,0.0,6.0,62,0.00,,,0.00,meteohub,2013-05-11 04:57:00,
2013-05-10 22:02:00,68.9,55.8,30.06,SSE,163,3.0,6.0,63,0.00,,,0.00,meteohub,2013-05-11 05:02:00,
2013-05-10 22:07:00,68.7,55.6,30.06,SSE,158,0.0,7.0,63,0.00,,,0.00,meteohub,2013-05-11 05:07:00,
2013-05-10 22:12:00,68.5,55.4,30.06,SSE,164,2.0,7.0,63,0.00,,,0.00,meteohub,2013-05-11 05:12:00,
2013-05-10 22:17:00,68.2,55.0,30.06,SSE,157,6.0,12.0,63,0.00,,,0.00,meteohub,2013-05-11 05:17:00,
2013-05-10 22:22:00,67.8,55.2,30.06,SSE,156,0.0,12.0,64,0.00,,,0.00,meteohub,2013-05-11 05:22:00,
2013-05-10 22:27:00,67.6,55.0,30.06,SSE,158,3.0,12.0,64,0.00,,,0.00,meteohub,2013-05-11 05:27:00,
2013-05-10 22:32:00,67.3,54.7,30.06,SSE,155,3.0,12.0,64,0.00,,,0.00,meteohub,2013-05-11 05:32:00,
2013-05-10 22:37:00,67.1,54.9,30.06,SSE,152,7.0,10.0,65,0.00,,,0.00,meteohub,2013-05-11 05:37:00,
2013-05-10 22:42:00,66.9,54.9,30.06,SSE,154,3.0,10.0,65,0.00,,,0.00,meteohub,2013-05-11 05:42:00,
2013-05-10 22:47:00,66.7,55.0,30.06,SSE,148,6.0,14.0,66,0.00,,,0.00,meteohub,2013-05-11 05:47:00,
2013-05-10 22:52:00,66.7,55.0,30.06,SSE,158,5.0,14.0,66,0.00,,,0.00,meteohub,2013-05-11 05:52:00,
2013-05-10 22:57:00,66.7,55.0,30.06,SSE,153,6.0,13.0,66,0.00,,,0.00,meteohub,2013-05-11 05:57:00,
2013-05-10 23:02:00,66.7,55.0,30.06,SSE,163,11.0,13.0,66,0.00,,,0.00,meteohub,2013-05-11 06:02:00,
2013-05-10 23:07:00,66.7,54.7,30.06,SSE,159,5.0,12.0,65,0.00,,,0.00,meteohub,2013-05-11 06:07:00,
2013-05-10 23:12:00,66.7,54.7,30.06,SSE,158,9.0,12.0,65,0.00,,,0.00,meteohub,2013-05-11 06:12:00,
2013-05-10 23:17:00,66.4,54.3,30.06,SSE,160,1.0,11.0,65,0.00,,,0.00,meteohub,2013-05-11 06:17:00,
2013-05-10 23:22:00,66.0,54.3,30.07,SSE,167,0.0,11.0,66,0.00,,,0.00,meteohub,2013-05-11 06:22:00,
2013-05-10 23:27:00,65.7,54.0,30.07,SSE,167,3.0,10.0,66,0.00,,,0.00,meteohub,2013-05-11 06:27:00,
2013-05-10 23:32:00,65.1,54.0,30.06,SSE,167,0.0,10.0,67,0.00,,,0.00,meteohub,2013-05-11 06:32:00,
2013-05-10 23:37:00,64.8,53.6,30.06,SSE,167,0.0,4.0,67,0.00,,,0.00,meteohub,2013-05-11 06:37:00,
2013-05-10 23:42:00,64.4,53.2,30.07,SSE,167,0.0,4.0,67,0.00,,,0.00,meteohub,2013-05-11 06:42:00,
2013-05-10 23:48:00,64.0,53.2,30.06,SSE,167,0.0,2.0,68,0.00,,,0.00,meteohub,2013-05-11 06:48:00,
2013-05-10 23:53:00,63.9,53.1,30.06,SSE,167,0.0,0.0,68,0.00,,,0.00,meteohub,2013-05-11 06:53:00,
2013-05-10 23:58:00,63.7,52.9,30.06,SSE,167,0.0,0.0,68,0.00,,,0.00,meteohub,2013-05-11 06:58:00,